sat.trackr.live / text

‹ back to catalog

STARLINK-30593

NORAD 58112 · 2023-161R

PAYLOAD ACTIVE UNKNOWN

§ Identity

Operator
Country
US
Launch date
2023-10-21
Launch site
AFWTR
Launch vehicle
Mass (kg)
RCS (m²)

Purposes: comms

External: N2YO · Heavens-Above · Gunter

§ Orbital elements

Epoch: 2026-05-25T01:34:23.221056Z

Period
94.11 min
Inclination
53.1596°
Eccentricity
0.0001126
Mean motion
15.30192386 rev/d
Perigee alt
474.5 km
Apogee alt
476.0 km
Semi-major
6,853.4 km
B*
2.4941e-5
RAAN
170.8738°
Arg perigee
78.1237°
Mean anomaly
281.9890°
Rev number
14,611

§ Raw data

STARLINK-305931 58112U 23161R   26145.06554654  .00000379  00000+0  24941-4 0  99952 58112  53.1596 170.8738 0001126  78.1237 281.9890 15.30192386146118

JSON: /api/v1/satellites/58112 · /tle

For live sub-satellite position, see the globe view (requires WebGL).

§ Visibility from observer

Set your observer location to see the next 7 days of passes ≥ 10°. The values pass through the URL so the page stays shareable.

No JS? Fill the form by hand. The geolocation button needs JavaScript.